590  
ASUS41 KOKX 210213  
RWROKX  
 
REGIONAL WEATHER ROUNDUP  
NATIONAL WEATHER SERVICE NEW YORK NY  
1000 PM EDT SAT APR 20 2019  
 
NOTE: "FAIR" INDICATES FEW OR NO CLOUDS BELOW 12,000 FEET WITH NO  
SIGNIFICANT WEATHER AND/OR S TO VISIBILITY
.  
 
NYZ071-072-176-178-NJZ106-104-210300-  
NEW YORK CITY METRO AREA  
 
CITY SKY/WX TMP DP RH WIND PRES REMARKS
 
CENTRAL PARK MOCLDY 55 49 80 CALM 29.88R  
BRONX LEHMAN C N/A 55 50 82 S7 N/A  
LAGUARDIA ARPT MOCLDY 55 48 77 S13 29.86R  
QUEENS COLLEGE N/A 55 50 82 S16 N/A  
KENNEDY INTL CLOUDY 54 52 93 S10 29.88R  
BREEZY POINT N/A 50 N/A N/A S15 N/A  
BROOKLYN COLL N/A 54 48 82 SE8 N/A  
STATEN ISLAND N/A 55 50 82 SE5 N/A  
NEWARK/LIBERTY MOCLDY 55 49 80 E8 29.85R  
TETERBORO MOCLDY 58 49 72 SE7 29.84R  

 
 
NYZ177-179-078>081-210300-  
LONG ISLAND NEW YORK  
 
CITY SKY/WX TMP DP RH WIND PRES REMARKS
 
JONES BEACH N/A 54 N/A N/A S13 N/A  
WANTAGH N/A 55 52 88 S13 N/A  
HEMPSTEAD N/A 57 54 88 S12 29.92R  
MATINECOCK PT N/A 59 N/A N/A S7G15 N/A  
FARMINGDALE CLOUDY 58 52 80 S14 29.88R  
MACARTHUR/ISP CLOUDY 56 54 93 S13 29.89R  
STONY BROOK N/A 57 54 88 S7 N/A  
SHIRLEY CLOUDY 56 53 90 SE13G22 29.91R  
MT SINAI HARB N/A N/A N/A N/A S12G17 N/A  
WESTHAMPTON CLOUDY 54 53 97 SE9 29.93R  
EAST HAMPTON CLOUDY 54 54 98 S8 29.93R  
SOUTHOLD N/A 59 57 94 S6 N/A  
MONTAUK N/A 55 53 93 S7 29.96R  

 
 
NYZ052-065-067-210300-  
HUDSON VALLEY  
 
CITY SKY/WX TMP DP RH WIND PRES REMARKS
 
WHITE PLAINS MOCLDY 55 49 80 SE6 29.88R  
LARCHMONT HARB N/A 54 N/A N/A S10 N/A  
CROTON ON HUDS N/A 59 N/A N/A SE8G14 N/A  
SOMERS N/A 55 48 76 SE13 N/A  
BREWSTER N/A 55 48 76 S3 N/A  
NEWBURGH PTCLDY 57 50 77 S15G21 29.83R  
MONTGOMERY FAIR 57 46 66 VRB5 29.82R  
OTISVILLE N/A 57 48 72 S5 N/A  
WARWICK N/A 55 48 76 S10 N/A  
SUFFERN N/A 54 48 82 E2 N/A  
POUGHKEEPSIE FAIR 60 46 59 VRB5 29.83R  
ALBANY MOCLDY 64 50 60 S13G29 29.82R  

 
 
NJZ001-105-106-008-010-013-015-019>022-104-210300-  
NEW JERSEY  
 
CITY SKY/WX TMP DP RH WIND PRES REMARKS
 
NEWARK/LIBERTY MOCLDY 55 49 80 E8 29.85R  
TETERBORO MOCLDY 58 49 72 SE7 29.84R  
CALDWELL MOCLDY 56 51 84 E9 29.85R  
SOMERVILLE FAIR 58 49 72 CALM 29.80S  
LINDEN MOCLDY 60 48 64 CALM 29.84R  
PERTH AMBOY N/A 59 N/A N/A S12 N/A  
SUSSEX FAIR 59 49 69 CALM 29.83R  
ANDOVER N/A 59 47 64 CALM 29.82R  
TRENTON FAIR 57 49 74 S7 29.81R  
MILLVILLE FAIR 57 52 83 VRB3 29.82R  
ATLANTIC CITY FAIR 58 51 78 S12 29.83S  
WRIGHTSTOWN FAIR 57 50 79 SE7 29.81  
TOMS RIVER FAIR 57 53 86 SE7 29.85R  
BELMAR CLOUDY 57 52 83 SE9 29.86R  

 
 
PAZ047>061-062-071-210300-  
EASTERN PENNSYLVANIA  
 
CITY SKY/WX TMP DP RH WIND PRES REMARKS
 
PHILADELPHIA MOCLDY 60 50 69 S9 29.81R  
ALLENTOWN FAIR 64 48 56 S8 29.79R  
SCRANTON FAIR 63 45 51 VRB6 29.77R  

 
 
CTZ002-004>006-009-010-012-RIZ004-006-007-MAZ004-011-015-210300-  
SOUTHERN NEW ENGLAND  
 
IN CT  
 
CITY SKY/WX TMP DP RH WIND PRES REMARKS
 
BRADLEY INTL MOCLDY 61 56 83 S9 29.90R  
HARTFORD CLOUDY 60 55 83 S5 29.90R  
DANBURY FAIR 56 48 74 VRB6 29.89R  
WTRBURY/OXFORD MOCLDY 55 54 94 S12 29.91R  
NORWALK HARBOR N/A 52 N/A N/A SE3 N/A  
BRIDGEPORT CLOUDY 57 52 83 S7 29.90R  
MERIDEN MOCLDY 58 54 86 S8 29.91R  
NEW HAVEN CLOUDY 57 53 86 SE6 29.91R  
CHESTER CLOUDY 59 57 94 S15 29.92S  
GROTON CLOUDY 55 53 93 S9 29.95R  
WILLIMANTIC CLOUDY 59 56 89 SE7 29.92R  
 
IN RI  
 
CITY SKY/WX TMP DP RH WIND PRES REMARKS
 
PROVIDENCE CLOUDY 56 56 100 S14 29.96R FOG  
BLOCK ISLAND LGT RAIN 55 55 100 S16 29.97S VSB 1/2  
WESTERLY CLOUDY 54 54 100 SE12G17 29.96S  
 
IN MA  
 
CITY SKY/WX TMP DP RH WIND PRES REMARKS
 
BOSTON CLOUDY 62 59 90 S15 29.95  
WORCESTER FAIR 60 57 89 S18G24 29.92F  
WESTFIELD FAIR 60 56 86 S9 29.88S  
PROVINCETOWN CLOUDY 56 56 100 S16G23 30.03R FOG  
NANTUCKET LGT RAIN 52 51 97 SE14 30.03F FOG  

 
 
ANZ330-335-338-340-345-350-353-355-210300-  
COASTAL MARINE OBSERVATIONS  
 
 
STATION/POSITION TIME SKY/WX TEMP WIND PRES VSBY WAVE
 
AIR SEA DIR/SP/G HT/PER  
(UTC) (F) (DEG/KT/KT) (MB) (MI) (FT/S)  
NY HARB ENTRANCE 0150 52 48 160/ 12/ 16 1011.1  
20 S FIRE ISLAND 0150 53 48 160/ 16/ 19 1011.4 10/11  
GREAT SOUTH BAY NOT AVBL  
23 SSW MONTAUK P 0150 51 47 160/ 12/ 17 1013.8 11/10  
15 E BARNEGAT LI 0200 49 N/A 8/11  
HUDSON CANYON NOT AVBL  
KINGS POINT 0136 56 49 220/ 15/ 20 1012.2  
EXECUTION ROCKS NOT AVBL  
WESTERN LI SOUND NOT AVBL  
CENTRAL LI SOUND NOT AVBL  
ROBBINS REEF 0148 54 160/ 11/ 14 1010.8  

 
 
>>>>>>>>>>>>>>>>>>>>>>>>>>>> KEY <<<<<<<<<<<<<<<<<<<<<<<<<<<  
> <  
> SKY/WX - SKY CONDITION/PRESENT WEATHER <  
> TMP - TEMPERATURE IN FAHRENHEIT <  
> DP - DEW POINT IN FAHRENHEIT <  
> RH - RELATIVE HUMIDITY IN PERCENT <  
> WIND - DIRECTION (FROM) AND SPEED IN MPH <  
> PRES - MEAN SEA LEVEL PRESSURE (INCHES OF HG) <  
> WCI - WIND CHILL INDEX <  
> VSB - VISIBILITY IN MILES <  
> HX - HEAT INDEX <  
> TC - TEMPERATURE IN CELSIUS <  
> VRB - VARIABLE WIND DIRECTION <  
> <  
>>>>>>>>>>>>>>>>>>>>>>>>>>>> KEY <<<<<<<<<<<<<<<<<<<<<<<<<<<  
 
 
CLICK HERE TO GO TO PREVIOUS BULLETINS.

The Nexlab NY Page
The Nexlab NJ Page
The Nexlab CT Page Main Text Page